Location: *
(23.5860°S, 65.4036°W)
Time: 04:20:20
(UTC+00:00)

Cosmos 1862 Rocket - Pass Details

Date: 25 August 2019
Orbit: 605 x 633 km, 82.5° (Epoch: 15 September)

Event Time Altitude Azimuth Distance (km) Brightness Sun altitude
Rises 22:32:03 0° 17° (NNE) 2,906 6.9 -6.1°
Reaches altitude 10° 22:34:28 10° 28° (NNE) 2,004 6.0 -6.7°
Maximum altitude 22:38:21 30° 89° (E) 1,130 4.4 -7.5°
Drops below altitude 10° 22:42:16 10° 150° (SSE) 2,014 5.8 -8.4°
Sets 22:44:42 0° 160° (SSE) 2,923 6.7 -9.0°
